Simultaneous Nadir Overpasses (SNOs) Predictions

Prediction of SNOs between AQUA and METOP-A Satellite Orbit:

Table of predicted SNOs for the next 14.0 days since TLE Epoch: 12/7/2012
Index Date (AQUA) Time (AQUA) AQUA Lat,Lon Date (METOP-A) Time (METOP-A) METOP-A Lat,Lon Distance(km) Time Diff (sec)
1 12/09/2012 18:23:52 73.67,-101.49 12/09/2012 18:22:40 73.59,-102.20 23.60 72
2 12/09/2012 19:13:21 -73.84, 65.77 12/09/2012 19:13:17 -73.83, 65.68 3.26 4
3 12/09/2012 20:02:50 73.92,-126.76 12/09/2012 20:03:55 73.92,-126.76 0.35 65
4 12/12/2012 13:58:12 73.75, -35.26 12/12/2012 13:56:59 73.73, -35.48 7.41 73
5 12/12/2012 14:47:40 -73.87, 132.12 12/12/2012 14:47:38 -73.86, 132.17 1.75 2
6 12/12/2012 15:37:08 73.90, -60.30 12/12/2012 15:38:17 73.91, -60.39 2.88 69
7 12/15/2012 09:32:32 73.81, 31.05 12/15/2012 09:31:20 73.82, 31.14 3.50 72
8 12/15/2012 10:21:59 -73.87,-161.44 12/15/2012 10:22:01 -73.86,-161.44 0.69 2
9 12/15/2012 11:11:28 73.95, 6.00 12/15/2012 11:12:39 73.95, 6.11 3.34 71
10 12/18/2012 05:06:51 73.82, 97.44 12/18/2012 05:05:43 73.83, 97.55 3.33 68
11 12/18/2012 05:56:18 -73.88, -95.04 12/18/2012 05:56:24 -73.87, -95.03 1.38 6
12 12/18/2012 06:45:48 74.02, 72.28 12/18/2012 06:47:00 74.06, 72.76 15.34 72
13 12/21/2012 00:41:08 73.80, 163.92 12/21/2012 00:40:06 73.79, 163.86 2.21 62
14 12/21/2012 01:30:35 -73.85, -28.56 12/21/2012 01:30:46 -73.88, -28.60 3.12 11




NCC Satellite Simultaneous Nadir Overpasses (SNOs) Prediction Service
